This demonstration page uses our WeatherBlox Daily Observations layout. Learn more.

Left ArrowRight Arrow

41.86663, -103.66717

Hourly Observations for December 19, 2020

Temp ( °F °C ) Dew Point ( °F °C ) Humidity (%) Winds ( mph kmh ) Pressure ( in mb ) Visibility ( mi km ) Precip ( " mm )
12:53 am 00:53 Clear 19 -7.2 14 -10 81 81 ESE 6 9 30.16 1021 10 16 0.00 0.00
1:53 am 01:53 Clear 17 -8.3 12 -11.1 80 80 NNE 6 9 30.16 1021 10 16 0.00 0.00
2:53 am 02:53 Clear 16 -8.9 11 -11.7 80 80 N 6 9 30.14 1021 10 16 0.00 0.00
3:53 am 03:53 Clear 19 -7.2 12 -11.1 74 74 Calm 30.11 1020 10 16 0.00 0.00
4:53 am 04:53 Clear 22 -5.6 14 -10 71 71 W 7 11 30.10 1019 10 16 0.00 0.00
5:53 am 05:53 Clear 30 -1.1 19 -7.2 64 64 W 9 15 30.08 1019 10 16 0.00 0.00
6:53 am 06:53 Clear 27 -2.8 16 -8.9 63 63 WSW 7 11 30.07 1018 10 16 0.00 0.00
7:53 am 07:53 Sunny 31 -0.6 18 -7.8 59 59 W 7 11 30.05 1018 10 16 0.00 0.00
8:53 am 08:53 Sunny 38 3.3 19 -7.2 46 46 W 17 28 30.02 1017 10 16 0.00 0.00
9:53 am 09:53 Sunny 43 6.1 20 -6.7 40 40 W 23 37 30.02 1017 10 16 0.00 0.00
10:53 am 10:53 Sunny 46 7.8 20 -6.7 35 35 W 22 35 29.98 1015 10 16 0.00 0.00
11:53 am 11:53 Sunny 45 7.2 19 -7.2 35 35 W 31 50 29.96 1015 10 16 0.00 0.00
12:53 pm 12:53 Sunny 44 6.7 19 -7.2 37 37 WNW 25 41 29.98 1015 10 16 0.00 0.00
1:53 pm 13:53 Sunny 44 6.7 20 -6.7 38 38 WNW 28 44 29.97 1015 10 16 0.00 0.00
2:53 pm 14:53 Sunny 46 7.8 19 -7.2 34 34 WNW 29 46 29.98 1015 10 16 0.00 0.00
3:53 pm 15:53 Cloudy 46 7.8 19 -7.2 34 34 WNW 24 39 29.99 1016 10 16 0.00 0.00
4:53 pm 16:53 Clear 41 5 20 -6.7 43 43 W 13 20 30.02 1017 10 16 0.00 0.00
5:53 pm 17:53 Mostly Cloudy 38 3.3 21 -6.1 51 51 WNW 10 17 30.05 1018 10 16 0.00 0.00
6:53 pm 18:53 Mostly Cloudy 38 3.3 20 -6.7 48 48 WNW 12 19 30.09 1019 10 16 0.00 0.00
7:53 pm 19:53 Clear 33 0.6 20 -6.7 58 58 WNW 9 15 30.13 1020 10 16 0.00 0.00
8:53 pm 20:53 Cloudy 35 1.7 21 -6.1 57 57 WNW 10 17 30.11 1020 10 16 0.00 0.00
9:53 pm 21:53 Cloudy 32 0 20 -6.7 61 61 WNW 8 13 30.12 1020 10 16 0.00 0.00
10:53 pm 22:53 Cloudy 37 2.8 21 -6.1 52 52 WNW 14 22 30.12 1020 10 16 0.00 0.00
11:53 pm 23:53 Cloudy 37 2.8 20 -6.7 50 50 WNW 13 20 30.13 1020 10 16 0.00 0.00

Powered by AerisWeather